Terminal Aerodrome Forecast
Issued by NWS

Home | Current Version | Previous Version | Text Only | Print | Product List | Glossary On
Versions: 1 2 3 4 5 6 7 8 9 10 11 12 13 14
000
FTUS42 TJSJ 060531
TAFJMZ
TAF
TJMZ 060531Z 0606/0706 08011KT P6SM FEW040
     FM061530 27015KT P6SM VCSH SCT025 BKN040
     FM062200 06006KT P6SM FEW030
      AMD NOT SKED=

USA.gov is the U.S. government's official web portal to all federal, state and local government web resources and services.